User: anonymous   Login
Location: Unspecified
(0.0000°N, 0.0000°E)
Time: 19:21:36
(UTC+00:00)
Language:

GALILEO-FM2 - Orbit

View from above orbital plane
View from above orbital plane
View from above satellite
View from above satellite

Ground track
Ground track

The orbit data is extracted from the following two-line orbital elements,

1 37847U 11060B   18138.97261583 -.00000054  00000-0  00000+0 0  9998
2 37847  56.0866  62.3305 0005819 324.3315 223.8725  1.70475689 40937
Epoch (UTC): 18 May 2018 23:20:34
Eccentricity: 0.0005819
inclination: 56.0866°
perigee height: 23204 km
apogee height: 23239 km
right ascension of ascending node: 62.3305°
argument of perigee: 324.3315°
revolutions per day: 1.70475689
mean anomaly at epoch: 223.8725°
orbit number at epoch: 4093

The dashed part of the orbit path shows where the satellite is in the earth's shadow,  

DLR